Regional Weather Roundup
Issued by NWS Grand Forks, ND

Home | Current Version | Previous Version | Text Only | Print | Product List | Glossary Off
Versions: 1 2 3 4 5 6 7 8 9 10 11 12 13 14 15 16 17 18 19 20 21 22 23 24 25 26 27 28 29 30 31 32 33 34 35 36 37 38 39 40 41 42 43 44 45 46 47 48 49 50

737
ASUS43 KFGF 032110
RWRFGF
PRAIRIE TO PINES  WEATHER ROUNDUP
NATIONAL WEATHER SERVICE EASTERN NORTH DAKOTA/GRAND FORKS ND
300 PM CST SAT DEC 03 2016

 **SATELLITE DATA USED TO AUGMENT SKY COVER AT AUTOMATED STATIONS**
 *****  WEATHER ACROSS EASTERN NORTH DAKOTA  *****

CITY           SKY/WX    TMP DP  RH WIND       PRES   REMARKS
GRAND FORKS    CLOUDY    31  23  72 SE18      30.05F WCI  19
GRAND FRKS AFB NOT AVBL
GRAND FRKS NWS   N/A     30 N/A N/A SE26        N/A  WCI  16
DEVILS LAKE    PTSUNNY   31  28  89 S17       29.92F WCI  19
FARGO          MOSUNNY   32  25  75 SE16      30.06F WCI  21
WAHPETON ARPT  CLOUDY    32  27  80 SE17G25   30.08S WCI  21
$$

 ***** WEATHER ACROSS CENTRAL AND WESTERN NORTH DAKOTA  *****

CITY           SKY/WX    TMP DP  RH WIND       PRES   REMARKS
BISMARCK       PTSUNNY   28  24  85 SE7       29.89S WCI  21
MINOT          SUNNY     28  24  85 S18G24    29.79F WCI  15
JAMESTOWN      CLOUDY    32  28  85 SE16      29.93F WCI  21
MINOT AFB      NOT AVBL
GARRISON         N/A     26  22  84 S14       29.82F WCI  14
WILLISTON      CLOUDY    34  26  72 S8        29.74F
DICKINSON      CLOUDY    30  24  78 SW10      29.77F WCI  21
HETTINGER      CLOUDY    30  24  78 SW3       29.84S
$$

 *****  OTHER AIRPORT OBSERVATIONS IN OUR AREA  *****

CITY           SKY/WX    TMP DP  RH WIND       PRES   REMARKS
WALHALLA         N/A     28  28 100 SE23G29   29.99F WCI  14
GRAFTON AIRPOR CLOUDY    28  25  86 S18G24    30.06F WCI  16
VALLEY CITY AR FLURRIES  30  30 100 SE14      30.00S WCI  20
CANDO          CLOUDY    32  28  86 SE17      29.92F WCI  21
CAVALIER APRT    N/A     28  27  93 S20G26    30.02S WCI  15
GWINNER          N/A     34  32  93 SE17      30.01F WCI  23
SHEYENNE NWR     N/A     32  26  79 S16       29.95S WCI  21
ROLLA          CLOUDY    28  28 100 S17G26    29.88S WCI  16
 ***** THE ABOVE OBSERVATIONS ARE NON NWS ARE NOT QUALITY
       CONTROLLED AND MAY MIS-REPORT RAIN FOR SNOW...
$$

  *****  WEATHER ACROSS NORTHERN MINNESOTA  *****

CITY           SKY/WX    TMP DP  RH WIND       PRES   REMARKS
FLAG ISLAND    CLOUDY    28  23  80 S21       30.10F WCI  15
WARROAD        CLOUDY    27  21  80 S8        30.11F WCI  18
ROSEAU         CLOUDY    27  21  80 SE13      30.10S WCI  16
HALLOCK        CLOUDY    28  25  86 S21       30.06F WCI  15
THF RVR FALLS  PTSUNNY   28  22  78 SE14      30.09F WCI  17
BAUDETTE       CLOUDY    26  19  74 SE12G20   30.12F WCI  16
WASKISH        CLOUDY    27  21  80 SE8       30.13F WCI  18
CROOKSTON      CLOUDY    30  23  74 S14       30.08F WCI  20
GREENBUSH NDAW   N/A     27  21  80 SE14        N/A  WCI  15
$$
  *****  WEATHER ACROSS CENTRAL AND WEST MINNESOTA  *****

CITY           SKY/WX    TMP DP  RH WIND       PRES   REMARKS
FOSSTON        SUNNY     30  21  69 SE9       30.09F WCI  22
BEMIDJI        PTSUNNY   26  19  76 SE9       30.11F WCI  16
PARK RAPIDS    SUNNY     27  16  63 SE12      30.10F WCI  17
ELBOW LAKE     CLOUDY    31  26  83 E15       30.11S WCI  20
WADENA         MOSUNNY   27  19  74 SE13      30.11S WCI  16
DETROIT LAKES  CLOUDY    28  23  80 SE12      30.07F WCI  18
MOORHEAD       MOSUNNY   32  25  74 SE17      30.07F WCI  21
FERGUS FALLS   CLOUDY    30  25  80 SE15      30.13F WCI  19
MORRIS MN      PTSUNNY   32  27  80 SE18      30.11S WCI  20
STAPLES        SUNNY     27  19  74 SE7       30.14R WCI  19
$$
  *****  WEATHER ELSEWHERE ACROSS MINNESOTA  *****

CITY           SKY/WX    TMP DP  RH WIND       PRES   REMARKS
DULUTH         CLOUDY    29  23  78 SE7       30.18F WCI  22
INTRNTL FALLS  CLOUDY    26  18  71 VRB5      30.15F WCI  20
ELY            CLOUDY    27  25  93 S3        30.18F
CLOQUET        CLOUDY    28  19  69 S3        30.18F
WHEATON        LGT SNOW N/A N/A N/A SE21      30.09F
BRAINERD       MOSUNNY   27  19  72 S10       30.15F WCI  17
HIBBING        CLOUDY    27  19  72 VRB5      30.17F WCI  22
ALEXANDRIA     CLOUDY    30  24  78 SE12      30.12F WCI  20
SAINT CLOUD    SUNNY     30  22  72 SE12      30.19S WCI  20
MINNEAPOLIS    MOSUNNY   32  19  58 S10       30.24R WCI  24
$$

  *****  WEATHER ACROSS SOUTH DAKOTA  *****

CITY           SKY/WX    TMP DP  RH WIND       PRES   REMARKS
SIOUX FALLS    FLURRIES  35  33  92 S15       30.11F
BROOKINGS      LGT SNOW  34  30  86 S13       30.06F VSB 1   WCI  25
WATERTOWN      LGT SNOW  33  30  88 S12       30.02F FOG     WCI  24
HURON          CLOUDY    36  34  92 SE15      30.00F
SISSETON         N/A     33  28  81 S17G23    30.04F WCI  22
ABERDEEN       PTSUNNY   35  31  85 S17G24    29.98F WCI  25
MITCHELL       CLOUDY    35  34  96 SE20      30.03F WCI  24
PIERRE         SUNNY     38  27  64 SW8       29.90F
MOBRIDGE       SUNNY     37  29  72 S8        29.87S
RAPID CITY     CLOUDY    42  23  46 NW15      29.88R
$$

  *****  SOME WEATHER IN NEARBY STATES *****

CITY           SKY/WX    TMP DP  RH WIND       PRES   REMARKS
GLASGOW MT     FLURRIES  34  32  92 W17       29.76R WCI  23
GREAT FALLS MT SUNNY     42  22  44 W15       29.89S
CHEYENNE WY    CLOUDY    33  11  39 W25G37    29.93R WCI  20
SCOTTSBLUFF NE SUNNY     44  11  26 W18G25    29.93F
OMAHA NE       LGT SNOW  33  30  88 SE3       30.21F VSB 3/4
DES MOINES IA  CLOUDY    41  30  65 SE7       30.24F
DAVENPORT IA   CLOUDY    38  26  62 S5        30.31S
CHICAGO IL     PTSUNNY   33  24  69 W6        30.33R
EAU CLAIRE WI  CLOUDY    31  21  66 S3        30.26S
LA CROSSE WI   CLOUDY    34  24  67 SE5       30.27F
$$

  *****  SOME NATIONAL WEATHER *****

CITY           SKY/WX    TMP DP  RH WIND       PRES   REMARKS
LA GUARDIA NY  PTCLDY    47  27  45 NW22G33   30.07R
RALEIGH NC     MOCLDY    52  27  38 CALM      30.24S
ATLANTA GA     CLOUDY    56  29  35 E3        30.19F
NEW ORLEANS LA CLOUDY    62  56  80 E21G28    29.99F
OKLAHOMA CITY  LGT RAIN  45  43  93 E8        30.07S
ALBUQUERQUE NM MOSUNNY   46  27  47 NW3       29.99F
SALT LAKE CITY CLOUDY    34  20  56 S8        30.26F
LOS ANGELES CA SUNNY     65  36  34 W10       30.07F
BOISE ID       CLOUDY    43  27  53 N3        30.25F
SEATTLE WA     CLOUDY    47  41  80 S14       30.27F
$$

*** WEATHER ACROSS MANITOBA...SASKATCHEWAN AND ONTARIO ***
                ***ONTARIO***

CITY           SKY/WX    TMP DP  RH WIND       PRES   REMARKS
GERALDTON      CLOUDY    23  18  80 VRB2      30.23R
THUNDER BAY    MOCLDY    32  21  64 CALM      30.25R
SIOUX LOOKOUT  FLURRIES  23  19  86 S9        30.16F WCI  13
TORONTO        CLOUDY    39  27  60 W14G21    30.21R
BIG TROUT LK   CLOUDY    21  19  93 S12       30.18F WCI   9
PICKLE LAKE    FRZ DRZL  21  18  86 S5        30.17S WCI  15
DRYDEN         CLOUDY    23  21  93 S9        30.13F WCI  13
KENORA         FLURRIES  25  21  86 S13       30.10F WCI  13
$$
                *** MANITOBA***

CITY           SKY/WX    TMP DP  RH WIND       PRES   REMARKS
BRANDON        CLOUDY    30  27  86 SE14G23   29.85F WCI  20
DAUPHIN        CLOUDY    32  27  80 SE5       29.82S
ISLAND LAKE    FLURRIES  12  10  92 SE9       30.10F WCI   0
PILOT MOUND      N/A     28  27  93 S22G28      N/A  WCI  15
THE PAS        FLURRIES  28  27  93 SE15G24   29.79F WCI  17
THOMPSON       FLURRIES  19  18  93 SE3       29.98F
WINNIPEG       CLOUDY    28  25  86 S25G33    30.02F WCI  14
LYNN LAKE      FLURRIES  23  23 100 SE8       29.84S WCI  14
CHURCHILL      FLURRIES  14  12  92 S8        30.08F WCI   3
GILLAM         LGT SNOW  12   9  85 SE5       30.10F WCI   4
$$
                ***SASKATCHEWAN***

CITY           SKY/WX    TMP DP  RH WIND       PRES   REMARKS
ESTEVAN        LGT SNOW  30  28  93 S13G22    29.71F WCI  20
KINDERSLEY     SNOW      27  25  93 NW3       29.71R VSB 1/2
LLOYDMINSTER   PTSUNNY   27  27 100 W6        29.68S FOG     WCI  20
PRINCE ALBERT  CLOUDY    28  25  86 E6        29.70R WCI  22
REGINA         PTSUNNY   34  30  86 W13       29.63S WCI  25
YORKTON        FLURRIES  27  21  80 SE17G23   29.70S WCI  14
N. BATTLEFORD  CLOUDY    25  25 100 W7        29.72F FOG     WCI  17
LA RONGE       FLURRIES  28  23  80 S7        29.72F WCI  21
SASKATOON      CLOUDY    27  23  86 N9        29.70R WCI  17
SWIFT CURRENT  LGT SNOW  30  30 100 W13       29.67S WCI  20
$$
NOTE: THESE ARE AUTOMATED STATIONS WITH LIMITED QUALITY CONTROL
      "FAIR" INDICATES FEW OR NO CLOUDS BELOW 12,000 FEET WITH NO
      SIGNIFICANT WEATHER AND/OR OBSTRUCTIONS TO VISIBILITY.
      SKY/WX - SKY CONDITION AND SIGNIFICANT WEATHER.
      TMP - AIR TEMPERATURE.    DP   - DEWPOINT TEMPERATURE.
      RH  - RELATIVE HUMIDITY.  PRES - PRESSURE.
      HX  - HEAT INDEX.         WCI  - WIND CHILL INDEX.
$




USA.gov is the U.S. government's official web portal to all federal, state and local government web resources and services.